Location: Unspecified
(0.0000°N, 0.0000°E)
Time: 04:20:06
(UTC+00:00)

Tianhe-1 - Visible Passes

Search period start: 13 May 2021 00:00
Search period end: 23 May 2021 00:00
Orbit: 351 x 385 km, 41.5° (Epoch: 11 May)

Date Brightness Start Highest point End Pass type
(mag) Time Alt. Az. Time Alt. Az. Time Alt. Az.
13 May 1.8 05:27:25 10° NW 05:30:27 54° NE 05:33:27 10° ESE visible
13 May 4.5 18:33:17 10° WNW 18:34:14 11° NW 18:35:11 10° NNW visible
14 May 4.0 04:23:22 10° N 04:25:29 17° NE 04:27:36 10° E visible
15 May 0.9 04:54:50 19° WNW 04:56:53 64° SW 04:59:56 10° SE visible
16 May 3.3 05:27:56 10° SW 05:28:16 10° SW 05:28:36 10° SW visible
